Location: Dallas
(32.7833°N, 96.8000°W)
Time: 00:34:30
(UTC-05:00)

Envisat - Pass Details

Date: 07 July 2022
Orbit: 763 x 765 km, 98.2° (Epoch: 11 August)

Event Time Altitude Azimuth Distance (km) Brightness Sun altitude
Rises 05:25:36 0° 20° (NNE) 3,233 7.3 -11.5°
Reaches altitude 10° 05:28:00 10° 27° (NNE) 2,303 6.6 -11.1°
Maximum altitude 05:32:51 45° 99° (E) 1,038 4.1 -10.3°
Drops below altitude 10° 05:37:40 10° 172° (S) 2,289 5.2 -9.5°
Sets 05:40:03 0° 178° (S) 3,211 5.9 -9.0°
